owner,sensor,date,latitude,longitude,vertical_datum,sea_water_temperature,qcFlag 
SCCF RECON,ioos:station:SCCF:51:1,2008-06-01T00:00:00Z,26.5545,-82.1715,1.8,28.77,2 
SCCF RECON,ioos:station:SCCF:51:1,2008-06-01T01:00:00Z,26.5545,-82.1715,1.8,28.97,2 
SCCF RECON,ioos:station:SCCF:51:1,2008-06-01T02:00:00Z,26.5545,-82.1715,1.8,29.18,2 
SCCF RECON,ioos:station:SCCF:51:1,2008-06-01T03:00:00Z,26.5545,-82.1715,1.8,29.14,2 
SCCF RECON,ioos:station:SCCF:51:1,2008-06-01T04:00:00Z,26.5545,-82.1715,1.8,28.96,2 
SCCF RECON,ioos:station:SCCF:51:1,2008-06-01T05:00:00Z,26.5545,-82.1715,1.8,28.98,2 
SCCF RECON,ioos:station:SCCF:51:1,2008-06-01T06:00:00Z,26.5545,-82.1715,1.8,28.77,2 
SCCF RECON,ioos:station:SCCF:51:1,2008-06-01T07:00:00Z,26.5545,-82.1715,1.8,28.66,2 
SCCF RECON,ioos:station:SCCF:51:1,2008-06-01T08:00:00Z,26.5545,-82.1715,1.8,28.44,2 
SCCF RECON,ioos:station:SCCF:51:1,2008-06-01T09:00:00Z,26.5545,-82.1715,1.8,28.39,2 
SCCF RECON,ioos:station:SCCF:51:1,2008-06-01T10:00:00Z,26.5545,-82.1715,1.8,28.35,2 
SCCF RECON,ioos:station:SCCF:51:1,2008-06-01T11:00:00Z,26.5545,-82.1715,1.8,28.44,2 
SCCF RECON,ioos:station:SCCF:51:1,2008-06-01T12:00:00Z,26.5545,-82.1715,1.8,28.49,2 
SCCF RECON,ioos:station:SCCF:51:1,2008-06-01T13:00:00Z,26.5545,-82.1715,1.8,28.73,2 
SCCF RECON,ioos:station:SCCF:51:1,2008-06-01T14:00:00Z,26.5545,-82.1715,1.8,28.82,2 
SCCF RECON,ioos:station:SCCF:51:1,2008-06-01T15:00:00Z,26.5545,-82.1715,1.8,28.83,2 
SCCF RECON,ioos:station:SCCF:51:1,2008-06-01T16:00:00Z,26.5545,-82.1715,1.8,29.17,2 
SCCF RECON,ioos:station:SCCF:51:1,2008-06-01T17:00:00Z,26.5545,-82.1715,1.8,28.89,2 
SCCF RECON,ioos:station:SCCF:51:1,2008-06-01T18:00:00Z,26.5545,-82.1715,1.8,28.88,2 
SCCF RECON,ioos:station:SCCF:51:1,2008-06-01T19:00:00Z,26.5545,-82.1715,1.8,29.43,2 
SCCF RECON,ioos:station:SCCF:51:1,2008-06-01T20:00:00Z,26.5545,-82.1715,1.8,29.57,2 
SCCF RECON,ioos:station:SCCF:51:1,2008-06-01T21:00:00Z,26.5545,-82.1715,1.8,29.77,2 
SCCF RECON,ioos:station:SCCF:51:1,2008-06-01T22:00:00Z,26.5545,-82.1715,1.8,29.95,2 
SCCF RECON,ioos:station:SCCF:51:1,2008-06-01T23:00:00Z,26.5545,-82.1715,1.8,29.94,2 
SCCF RECON,ioos:station:SCCF:51:1,2008-06-02T00:00:00Z,26.5545,-82.1715,1.8,30.02,2 
SCCF RECON,ioos:station:SCCF:51:1,2008-06-02T01:00:00Z,26.5545,-82.1715,1.8,29.7,2 
SCCF RECON,ioos:station:SCCF:51:1,2008-06-02T02:00:00Z,26.5545,-82.1715,1.8,29.77,2 
SCCF RECON,ioos:station:SCCF:51:1,2008-06-02T03:00:00Z,26.5545,-82.1715,1.8,29.85,2 
SCCF RECON,ioos:station:SCCF:51:1,2008-06-02T04:00:00Z,26.5545,-82.1715,1.8,29.88,2 
SCCF RECON,ioos:station:SCCF:51:1,2008-06-02T05:00:00Z,26.5545,-82.1715,1.8,29.73,2 
SCCF RECON,ioos:station:SCCF:51:1,2008-06-02T06:00:00Z,26.5545,-82.1715,1.8,29.61,2 
SCCF RECON,ioos:station:SCCF:51:1,2008-06-02T07:00:00Z,26.5545,-82.1715,1.8,29.65,2 
SCCF RECON,ioos:station:SCCF:51:1,2008-06-02T08:00:00Z,26.5545,-82.1715,1.8,29.66,2 
SCCF RECON,ioos:station:SCCF:51:1,2008-06-02T09:00:00Z,26.5545,-82.1715,1.8,29.7,2 
SCCF RECON,ioos:station:SCCF:51:1,2008-06-02T10:00:00Z,26.5545,-82.1715,1.8,29.7,2 
SCCF RECON,ioos:station:SCCF:51:1,2008-06-02T11:00:00Z,26.5545,-82.1715,1.8,29.33,2 
SCCF RECON,ioos:station:SCCF:51:1,2008-06-02T12:00:00Z,26.5545,-82.1715,1.8,29.41,2 
SCCF RECON,ioos:station:SCCF:51:1,2008-06-02T13:00:00Z,26.5545,-82.1715,1.8,29.36,2 
SCCF RECON,ioos:station:SCCF:51:1,2008-06-02T14:00:00Z,26.5545,-82.1715,1.8,29.51,2 
SCCF RECON,ioos:station:SCCF:51:1,2008-06-02T15:00:00Z,26.5545,-82.1715,1.8,29.63,2 
SCCF RECON,ioos:station:SCCF:51:1,2008-06-02T16:00:00Z,26.5545,-82.1715,1.8,29.63,2 
SCCF RECON,ioos:station:SCCF:51:1,2008-06-13T15:00:00Z,26.5545,-82.1715,1.8,29.44,2 
SCCF RECON,ioos:station:SCCF:51:1,2008-06-13T16:00:00Z,26.5545,-82.1715,1.8,29.55,2 
SCCF RECON,ioos:station:SCCF:51:1,2008-06-13T17:00:00Z,26.5545,-82.1715,1.8,29.91,2 
SCCF RECON,ioos:station:SCCF:51:1,2008-06-13T18:00:00Z,26.5545,-82.1715,1.8,29.95,2 
SCCF RECON,ioos:station:SCCF:51:1,2008-06-13T19:00:00Z,26.5545,-82.1715,1.8,30.0,2 
SCCF RECON,ioos:station:SCCF:51:1,2008-06-13T20:00:00Z,26.5545,-82.1715,1.8,30.17,2 
SCCF RECON,ioos:station:SCCF:51:1,2008-06-13T21:00:00Z,26.5545,-82.1715,1.8,30.03,2 
SCCF RECON,ioos:station:SCCF:51:1,2008-06-13T22:00:00Z,26.5545,-82.1715,1.8,30.2,2 
SCCF RECON,ioos:station:SCCF:51:1,2008-06-13T23:00:00Z,26.5545,-82.1715,1.8,30.09,2 
SCCF RECON,ioos:station:SCCF:51:1,2008-06-14T00:00:00Z,26.5545,-82.1715,1.8,29.98,2 
SCCF RECON,ioos:station:SCCF:51:1,2008-06-14T01:00:00Z,26.5545,-82.1715,1.8,30.2,2 
SCCF RECON,ioos:station:SCCF:51:1,2008-06-14T02:00:00Z,26.5545,-82.1715,1.8,30.43,2 
SCCF RECON,ioos:station:SCCF:51:1,2008-06-14T03:00:00Z,26.5545,-82.1715,1.8,30.3,2 
SCCF RECON,ioos:station:SCCF:51:1,2008-06-14T04:00:00Z,26.5545,-82.1715,1.8,30.11,2 
SCCF RECON,ioos:station:SCCF:51:1,2008-06-14T05:00:00Z,26.5545,-82.1715,1.8,29.84,2 
SCCF RECON,ioos:station:SCCF:51:1,2008-06-14T06:00:00Z,26.5545,-82.1715,1.8,29.61,2 
SCCF RECON,ioos:station:SCCF:51:1,2008-06-14T07:00:00Z,26.5545,-82.1715,1.8,29.45,2 
SCCF RECON,ioos:station:SCCF:51:1,2008-06-14T08:00:00Z,26.5545,-82.1715,1.8,29.35,2 
SCCF RECON,ioos:station:SCCF:51:1,2008-06-14T09:00:00Z,26.5545,-82.1715,1.8,29.28,2 
SCCF RECON,ioos:station:SCCF:51:1,2008-06-14T10:00:00Z,26.5545,-82.1715,1.8,29.15,2 
SCCF RECON,ioos:station:SCCF:51:1,2008-06-14T11:00:00Z,26.5545,-82.1715,1.8,29.28,2 
SCCF RECON,ioos:station:SCCF:51:1,2008-06-14T12:00:00Z,26.5545,-82.1715,1.8,29.1,2 
SCCF RECON,ioos:station:SCCF:51:1,2008-06-14T13:00:00Z,26.5545,-82.1715,1.8,29.2,2 
SCCF RECON,ioos:station:SCCF:51:1,2008-06-14T14:00:00Z,26.5545,-82.1715,1.8,29.61,2 
SCCF RECON,ioos:station:SCCF:51:1,2008-06-14T15:00:00Z,26.5545,-82.1715,1.8,29.56,2 
SCCF RECON,ioos:station:SCCF:51:1,2008-06-14T16:00:00Z,26.5545,-82.1715,1.8,29.5,2 
SCCF RECON,ioos:station:SCCF:51:1,2008-06-14T17:00:00Z,26.5545,-82.1715,1.8,29.81,2 
SCCF RECON,ioos:station:SCCF:51:1,2008-06-14T18:00:00Z,26.5545,-82.1715,1.8,29.8,2 
SCCF RECON,ioos:station:SCCF:51:1,2008-06-14T19:00:00Z,26.5545,-82.1715,1.8,29.83,2 
SCCF RECON,ioos:station:SCCF:51:1,2008-06-14T20:00:00Z,26.5545,-82.1715,1.8,30.05,2 
SCCF RECON,ioos:station:SCCF:51:1,2008-06-14T21:00:00Z,26.5545,-82.1715,1.8,30.07,2 
SCCF RECON,ioos:station:SCCF:51:1,2008-06-14T22:00:00Z,26.5545,-82.1715,1.8,29.97,2 
SCCF RECON,ioos:station:SCCF:51:1,2008-06-14T23:00:00Z,26.5545,-82.1715,1.8,29.91,2 
SCCF RECON,ioos:station:SCCF:51:1,2008-06-15T00:00:00Z,26.5545,-82.1715,1.8,29.76,2 
SCCF RECON,ioos:station:SCCF:51:1,2008-06-15T01:00:00Z,26.5545,-82.1715,1.8,29.71,2 
SCCF RECON,ioos:station:SCCF:51:1,2008-06-15T02:00:00Z,26.5545,-82.1715,1.8,29.98,2 
SCCF RECON,ioos:station:SCCF:51:1,2008-06-15T03:00:00Z,26.5545,-82.1715,1.8,29.93,2 
SCCF RECON,ioos:station:SCCF:51:1,2008-06-15T04:00:00Z,26.5545,-82.1715,1.8,29.68,2 
SCCF RECON,ioos:station:SCCF:51:1,2008-06-15T05:00:00Z,26.5545,-82.1715,1.8,29.56,2 
SCCF RECON,ioos:station:SCCF:51:1,2008-06-15T06:00:00Z,26.5545,-82.1715,1.8,29.72,2 
SCCF RECON,ioos:station:SCCF:51:1,2008-06-15T07:00:00Z,26.5545,-82.1715,1.8,29.55,2 
SCCF RECON,ioos:station:SCCF:51:1,2008-06-15T08:00:00Z,26.5545,-82.1715,1.8,29.37,2 
SCCF RECON,ioos:station:SCCF:51:1,2008-06-15T09:00:00Z,26.5545,-82.1715,1.8,29.24,2 
SCCF RECON,ioos:station:SCCF:51:1,2008-06-15T10:00:00Z,26.5545,-82.1715,1.8,29.22,2 
SCCF RECON,ioos:station:SCCF:51:1,2008-06-15T11:00:00Z,26.5545,-82.1715,1.8,29.41,2 
SCCF RECON,ioos:station:SCCF:51:1,2008-06-15T12:00:00Z,26.5545,-82.1715,1.8,29.24,2 
SCCF RECON,ioos:station:SCCF:51:1,2008-06-15T13:00:00Z,26.5545,-82.1715,1.8,29.08,2 
SCCF RECON,ioos:station:SCCF:51:1,2008-06-15T14:00:00Z,26.5545,-82.1715,1.8,29.44,2 
SCCF RECON,ioos:station:SCCF:51:1,2008-06-15T15:00:00Z,26.5545,-82.1715,1.8,29.81,2 
SCCF RECON,ioos:station:SCCF:51:1,2008-06-15T16:00:00Z,26.5545,-82.1715,1.8,29.65,2 
SCCF RECON,ioos:station:SCCF:51:1,2008-06-15T17:00:00Z,26.5545,-82.1715,1.8,29.74,2 
SCCF RECON,ioos:station:SCCF:51:1,2008-06-15T18:00:00Z,26.5545,-82.1715,1.8,29.84,2 
SCCF RECON,ioos:station:SCCF:51:1,2008-06-15T19:00:00Z,26.5545,-82.1715,1.8,29.99,2 
SCCF RECON,ioos:station:SCCF:51:1,2008-06-15T20:00:00Z,26.5545,-82.1715,1.8,30.23,2 
SCCF RECON,ioos:station:SCCF:51:1,2008-06-15T21:00:00Z,26.5545,-82.1715,1.8,30.24,2 
SCCF RECON,ioos:station:SCCF:51:1,2008-06-15T22:00:00Z,26.5545,-82.1715,1.8,30.17,2 
SCCF RECON,ioos:station:SCCF:51:1,2008-06-15T23:00:00Z,26.5545,-82.1715,1.8,30.16,2 
SCCF RECON,ioos:station:SCCF:51:1,2008-06-16T00:00:00Z,26.5545,-82.1715,1.8,30.08,2 
SCCF RECON,ioos:station:SCCF:51:1,2008-06-16T01:00:00Z,26.5545,-82.1715,1.8,30.05,2 
SCCF RECON,ioos:station:SCCF:51:1,2008-06-16T02:00:00Z,26.5545,-82.1715,1.8,30.3,2 
SCCF RECON,ioos:station:SCCF:51:1,2008-06-16T03:00:00Z,26.5545,-82.1715,1.8,30.24,2 
SCCF RECON,ioos:station:SCCF:51:1,2008-06-16T04:00:00Z,26.5545,-82.1715,1.8,30.05,2 
SCCF RECON,ioos:station:SCCF:51:1,2008-06-16T05:00:00Z,26.5545,-82.1715,1.8,29.75,2 
SCCF RECON,ioos:station:SCCF:51:1,2008-06-16T06:00:00Z,26.5545,-82.1715,1.8,30.0,2 
SCCF RECON,ioos:station:SCCF:51:1,2008-06-16T07:00:00Z,26.5545,-82.1715,1.8,29.71,2 
SCCF RECON,ioos:station:SCCF:51:1,2008-06-16T08:00:00Z,26.5545,-82.1715,1.8,29.47,2 
SCCF RECON,ioos:station:SCCF:51:1,2008-06-16T09:00:00Z,26.5545,-82.1715,1.8,29.35,2 
SCCF RECON,ioos:station:SCCF:51:1,2008-06-16T10:00:00Z,26.5545,-82.1715,1.8,29.34,2 
SCCF RECON,ioos:station:SCCF:51:1,2008-06-16T11:00:00Z,26.5545,-82.1715,1.8,29.54,2 
SCCF RECON,ioos:station:SCCF:51:1,2008-06-16T12:00:00Z,26.5545,-82.1715,1.8,29.32,2 
SCCF RECON,ioos:station:SCCF:51:1,2008-06-16T13:00:00Z,26.5545,-82.1715,1.8,29.73,2 
SCCF RECON,ioos:station:SCCF:51:1,2008-06-16T14:00:00Z,26.5545,-82.1715,1.8,29.74,2 
SCCF RECON,ioos:station:SCCF:51:1,2008-06-16T15:00:00Z,26.5545,-82.1715,1.8,29.75,2 
SCCF RECON,ioos:station:SCCF:51:1,2008-06-16T16:00:00Z,26.5545,-82.1715,1.8,29.63,2 
SCCF RECON,ioos:station:SCCF:51:1,2008-06-16T17:00:00Z,26.5545,-82.1715,1.8,29.78,2 
SCCF RECON,ioos:station:SCCF:51:1,2008-06-16T18:00:00Z,26.5545,-82.1715,1.8,29.67,2 
SCCF RECON,ioos:station:SCCF:51:1,2008-06-16T19:00:00Z,26.5545,-82.1715,1.8,29.63,2 
SCCF RECON,ioos:station:SCCF:51:1,2008-06-16T20:00:00Z,26.5545,-82.1715,1.8,29.62,2 
SCCF RECON,ioos:station:SCCF:51:1,2008-06-16T21:00:00Z,26.5545,-82.1715,1.8,29.69,2 
SCCF RECON,ioos:station:SCCF:51:1,2008-06-16T22:00:00Z,26.5545,-82.1715,1.8,29.71,2 
SCCF RECON,ioos:station:SCCF:51:1,2008-06-16T23:00:00Z,26.5545,-82.1715,1.8,29.87,2 
SCCF RECON,ioos:station:SCCF:51:1,2008-06-17T00:00:00Z,26.5545,-82.1715,1.8,29.95,2 
SCCF RECON,ioos:station:SCCF:51:1,2008-06-17T01:00:00Z,26.5545,-82.1715,1.8,30.0,2 
SCCF RECON,ioos:station:SCCF:51:1,2008-06-17T02:00:00Z,26.5545,-82.1715,1.8,29.95,2 
SCCF RECON,ioos:station:SCCF:51:1,2008-06-17T03:00:00Z,26.5545,-82.1715,1.8,30.21,2 
SCCF RECON,ioos:station:SCCF:51:1,2008-06-17T04:00:00Z,26.5545,-82.1715,1.8,30.24,2 
SCCF RECON,ioos:station:SCCF:51:1,2008-06-17T05:00:00Z,26.5545,-82.1715,1.8,29.89,2 
SCCF RECON,ioos:station:SCCF:51:1,2008-06-17T06:00:00Z,26.5545,-82.1715,1.8,30.04,2 
SCCF RECON,ioos:station:SCCF:51:1,2008-06-17T07:00:00Z,26.5545,-82.1715,1.8,30.2,2 
SCCF RECON,ioos:station:SCCF:51:1,2008-06-17T08:00:00Z,26.5545,-82.1715,1.8,29.95,2 
SCCF RECON,ioos:station:SCCF:51:1,2008-06-17T09:00:00Z,26.5545,-82.1715,1.8,29.67,2 
SCCF RECON,ioos:station:SCCF:51:1,2008-06-17T10:00:00Z,26.5545,-82.1715,1.8,29.6,2 
SCCF RECON,ioos:station:SCCF:51:1,2008-06-17T11:00:00Z,26.5545,-82.1715,1.8,29.7,2 
SCCF RECON,ioos:station:SCCF:51:1,2008-06-17T12:00:00Z,26.5545,-82.1715,1.8,29.78,2 
SCCF RECON,ioos:station:SCCF:51:1,2008-06-17T13:00:00Z,26.5545,-82.1715,1.8,29.78,2 
SCCF RECON,ioos:station:SCCF:51:1,2008-06-17T14:00:00Z,26.5545,-82.1715,1.8,29.96,2 
SCCF RECON,ioos:station:SCCF:51:1,2008-06-17T15:00:00Z,26.5545,-82.1715,1.8,30.06,2 
SCCF RECON,ioos:station:SCCF:51:1,2008-06-17T16:00:00Z,26.5545,-82.1715,1.8,30.34,2 
SCCF RECON,ioos:station:SCCF:51:1,2008-06-17T17:00:00Z,26.5545,-82.1715,1.8,30.13,2 
SCCF RECON,ioos:station:SCCF:51:1,2008-06-17T18:00:00Z,26.5545,-82.1715,1.8,30.2,2 
SCCF RECON,ioos:station:SCCF:51:1,2008-06-17T19:00:00Z,26.5545,-82.1715,1.8,30.32,2 
SCCF RECON,ioos:station:SCCF:51:1,2008-06-17T20:00:00Z,26.5545,-82.1715,1.8,30.54,2 
SCCF RECON,ioos:station:SCCF:51:1,2008-06-17T21:00:00Z,26.5545,-82.1715,1.8,31.07,2 
SCCF RECON,ioos:station:SCCF:51:1,2008-06-17T22:00:00Z,26.5545,-82.1715,1.8,30.85,2 
SCCF RECON,ioos:station:SCCF:51:1,2008-06-17T23:00:00Z,26.5545,-82.1715,1.8,31.05,2 
SCCF RECON,ioos:station:SCCF:51:1,2008-06-18T00:00:00Z,26.5545,-82.1715,1.8,31.01,2 
SCCF RECON,ioos:station:SCCF:51:1,2008-06-18T01:00:00Z,26.5545,-82.1715,1.8,30.92,2 
SCCF RECON,ioos:station:SCCF:51:1,2008-06-18T02:00:00Z,26.5545,-82.1715,1.8,30.78,2 
SCCF RECON,ioos:station:SCCF:51:1,2008-06-18T03:00:00Z,26.5545,-82.1715,1.8,30.63,2 
SCCF RECON,ioos:station:SCCF:51:1,2008-06-18T04:00:00Z,26.5545,-82.1715,1.8,30.76,2 
SCCF RECON,ioos:station:SCCF:51:1,2008-06-18T05:00:00Z,26.5545,-82.1715,1.8,30.81,2 
SCCF RECON,ioos:station:SCCF:51:1,2008-06-18T06:00:00Z,26.5545,-82.1715,1.8,30.75,2 
SCCF RECON,ioos:station:SCCF:51:1,2008-06-18T07:00:00Z,26.5545,-82.1715,1.8,30.56,2 
SCCF RECON,ioos:station:SCCF:51:1,2008-06-18T08:00:00Z,26.5545,-82.1715,1.8,30.24,2 
SCCF RECON,ioos:station:SCCF:51:1,2008-06-18T09:00:00Z,26.5545,-82.1715,1.8,30.21,2 
SCCF RECON,ioos:station:SCCF:51:1,2008-06-18T10:00:00Z,26.5545,-82.1715,1.8,30.12,2 
SCCF RECON,ioos:station:SCCF:51:1,2008-06-18T11:00:00Z,26.5545,-82.1715,1.8,30.08,2 
SCCF RECON,ioos:station:SCCF:51:1,2008-06-18T12:00:00Z,26.5545,-82.1715,1.8,30.13,2 
SCCF RECON,ioos:station:SCCF:51:1,2008-06-18T13:00:00Z,26.5545,-82.1715,1.8,30.27,2 
SCCF RECON,ioos:station:SCCF:51:1,2008-06-18T14:00:00Z,26.5545,-82.1715,1.8,30.3,2 
SCCF RECON,ioos:station:SCCF:51:1,2008-06-18T15:00:00Z,26.5545,-82.1715,1.8,30.61,2 
SCCF RECON,ioos:station:SCCF:51:1,2008-06-18T16:00:00Z,26.5545,-82.1715,1.8,30.75,2 
SCCF RECON,ioos:station:SCCF:51:1,2008-06-18T17:00:00Z,26.5545,-82.1715,1.8,30.73,2 
SCCF RECON,ioos:station:SCCF:51:1,2008-06-18T18:00:00Z,26.5545,-82.1715,1.8,30.62,2 
SCCF RECON,ioos:station:SCCF:51:1,2008-06-18T19:00:00Z,26.5545,-82.1715,1.8,30.49,2 
SCCF RECON,ioos:station:SCCF:51:1,2008-06-18T20:00:00Z,26.5545,-82.1715,1.8,30.63,2 
SCCF RECON,ioos:station:SCCF:51:1,2008-06-18T21:00:00Z,26.5545,-82.1715,1.8,30.68,2 
SCCF RECON,ioos:station:SCCF:51:1,2008-06-18T22:00:00Z,26.5545,-82.1715,1.8,30.6,2 
SCCF RECON,ioos:station:SCCF:51:1,2008-06-18T23:00:00Z,26.5545,-82.1715,1.8,30.57,2 
SCCF RECON,ioos:station:SCCF:51:1,2008-06-19T00:00:00Z,26.5545,-82.1715,1.8,30.55,2 
SCCF RECON,ioos:station:SCCF:51:1,2008-06-19T01:00:00Z,26.5545,-82.1715,1.8,30.49,2 
SCCF RECON,ioos:station:SCCF:51:1,2008-06-19T02:00:00Z,26.5545,-82.1715,1.8,30.39,2 
SCCF RECON,ioos:station:SCCF:51:1,2008-06-19T03:00:00Z,26.5545,-82.1715,1.8,30.21,2 
SCCF RECON,ioos:station:SCCF:51:1,2008-06-19T04:00:00Z,26.5545,-82.1715,1.8,30.31,2 
SCCF RECON,ioos:station:SCCF:51:1,2008-06-19T05:00:00Z,26.5545,-82.1715,1.8,30.4,2 
SCCF RECON,ioos:station:SCCF:51:1,2008-06-19T06:00:00Z,26.5545,-82.1715,1.8,30.09,2 
SCCF RECON,ioos:station:SCCF:51:1,2008-06-19T07:00:00Z,26.5545,-82.1715,1.8,30.1,2 
SCCF RECON,ioos:station:SCCF:51:1,2008-06-19T08:00:00Z,26.5545,-82.1715,1.8,30.18,2 
SCCF RECON,ioos:station:SCCF:51:1,2008-06-19T09:00:00Z,26.5545,-82.1715,1.8,30.09,2 
SCCF RECON,ioos:station:SCCF:51:1,2008-06-19T10:00:00Z,26.5545,-82.1715,1.8,29.69,2 
SCCF RECON,ioos:station:SCCF:51:1,2008-06-19T11:00:00Z,26.5545,-82.1715,1.8,29.68,2 
SCCF RECON,ioos:station:SCCF:51:1,2008-06-19T12:00:00Z,26.5545,-82.1715,1.8,29.59,2 
SCCF RECON,ioos:station:SCCF:51:1,2008-06-19T13:00:00Z,26.5545,-82.1715,1.8,29.72,2 
SCCF RECON,ioos:station:SCCF:51:1,2008-06-19T14:00:00Z,26.5545,-82.1715,1.8,29.68,2 
SCCF RECON,ioos:station:SCCF:51:1,2008-06-19T15:00:00Z,26.5545,-82.1715,1.8,29.86,2 
SCCF RECON,ioos:station:SCCF:51:1,2008-06-19T16:00:00Z,26.5545,-82.1715,1.8,29.73,2 
SCCF RECON,ioos:station:SCCF:51:1,2008-06-19T17:00:00Z,26.5545,-82.1715,1.8,30.14,2 
SCCF RECON,ioos:station:SCCF:51:1,2008-06-19T18:00:00Z,26.5545,-82.1715,1.8,30.23,2 
SCCF RECON,ioos:station:SCCF:51:1,2008-06-19T19:00:00Z,26.5545,-82.1715,1.8,30.13,2 
SCCF RECON,ioos:station:SCCF:51:1,2008-06-19T20:00:00Z,26.5545,-82.1715,1.8,30.36,2 
SCCF RECON,ioos:station:SCCF:51:1,2008-06-19T21:00:00Z,26.5545,-82.1715,1.8,30.41,2 
SCCF RECON,ioos:station:SCCF:51:1,2008-06-19T22:00:00Z,26.5545,-82.1715,1.8,30.49,2 
SCCF RECON,ioos:station:SCCF:51:1,2008-06-19T23:00:00Z,26.5545,-82.1715,1.8,30.4,2 
SCCF RECON,ioos:station:SCCF:51:1,2008-06-20T00:00:00Z,26.5545,-82.1715,1.8,30.43,2 
SCCF RECON,ioos:station:SCCF:51:1,2008-06-20T01:00:00Z,26.5545,-82.1715,1.8,30.4,2 
SCCF RECON,ioos:station:SCCF:51:1,2008-06-20T02:00:00Z,26.5545,-82.1715,1.8,30.34,2 
SCCF RECON,ioos:station:SCCF:51:1,2008-06-20T03:00:00Z,26.5545,-82.1715,1.8,30.26,2 
SCCF RECON,ioos:station:SCCF:51:1,2008-06-20T04:00:00Z,26.5545,-82.1715,1.8,30.04,2 
SCCF RECON,ioos:station:SCCF:51:1,2008-06-20T05:00:00Z,26.5545,-82.1715,1.8,30.3,2 
SCCF RECON,ioos:station:SCCF:51:1,2008-06-20T06:00:00Z,26.5545,-82.1715,1.8,30.41,2 
SCCF RECON,ioos:station:SCCF:51:1,2008-06-20T07:00:00Z,26.5545,-82.1715,1.8,30.34,2 
SCCF RECON,ioos:station:SCCF:51:1,2008-06-20T08:00:00Z,26.5545,-82.1715,1.8,29.86,2 
SCCF RECON,ioos:station:SCCF:51:1,2008-06-20T09:00:00Z,26.5545,-82.1715,1.8,30.21,2 
SCCF RECON,ioos:station:SCCF:51:1,2008-06-20T10:00:00Z,26.5545,-82.1715,1.8,29.94,2 
SCCF RECON,ioos:station:SCCF:51:1,2008-06-20T11:00:00Z,26.5545,-82.1715,1.8,29.94,2 
SCCF RECON,ioos:station:SCCF:51:1,2008-06-20T12:00:00Z,26.5545,-82.1715,1.8,29.87,2 
SCCF RECON,ioos:station:SCCF:51:1,2008-06-20T13:00:00Z,26.5545,-82.1715,1.8,29.91,2 
SCCF RECON,ioos:station:SCCF:51:1,2008-06-20T14:00:00Z,26.5545,-82.1715,1.8,30.15,2 
SCCF RECON,ioos:station:SCCF:51:1,2008-06-20T15:00:00Z,26.5545,-82.1715,1.8,30.17,2 
SCCF RECON,ioos:station:SCCF:51:1,2008-06-20T16:00:00Z,26.5545,-82.1715,1.8,30.6,2 
SCCF RECON,ioos:station:SCCF:51:1,2008-06-20T17:00:00Z,26.5545,-82.1715,1.8,30.8,2 
SCCF RECON,ioos:station:SCCF:51:1,2008-06-20T18:00:00Z,26.5545,-82.1715,1.8,30.94,2 
SCCF RECON,ioos:station:SCCF:51:1,2008-06-20T19:00:00Z,26.5545,-82.1715,1.8,30.91,2 
SCCF RECON,ioos:station:SCCF:51:1,2008-06-20T20:00:00Z,26.5545,-82.1715,1.8,30.81,2 
SCCF RECON,ioos:station:SCCF:51:1,2008-06-20T21:00:00Z,26.5545,-82.1715,1.8,30.8,2 
SCCF RECON,ioos:station:SCCF:51:1,2008-06-20T22:00:00Z,26.5545,-82.1715,1.8,31.0,2 
SCCF RECON,ioos:station:SCCF:51:1,2008-06-20T23:00:00Z,26.5545,-82.1715,1.8,30.95,2 
SCCF RECON,ioos:station:SCCF:51:1,2008-06-21T00:00:00Z,26.5545,-82.1715,1.8,30.96,2 
SCCF RECON,ioos:station:SCCF:51:1,2008-06-21T01:00:00Z,26.5545,-82.1715,1.8,30.94,2 
SCCF RECON,ioos:station:SCCF:51:1,2008-06-21T02:00:00Z,26.5545,-82.1715,1.8,30.95,2 
SCCF RECON,ioos:station:SCCF:51:1,2008-06-21T03:00:00Z,26.5545,-82.1715,1.8,30.86,2 
SCCF RECON,ioos:station:SCCF:51:1,2008-06-21T04:00:00Z,26.5545,-82.1715,1.8,30.73,2 
SCCF RECON,ioos:station:SCCF:51:1,2008-06-21T05:00:00Z,26.5545,-82.1715,1.8,30.65,2 
SCCF RECON,ioos:station:SCCF:51:1,2008-06-21T06:00:00Z,26.5545,-82.1715,1.8,30.89,2 
SCCF RECON,ioos:station:SCCF:51:1,2008-06-21T07:00:00Z,26.5545,-82.1715,1.8,30.87,2 
SCCF RECON,ioos:station:SCCF:51:1,2008-06-21T08:00:00Z,26.5545,-82.1715,1.8,30.77,2 
SCCF RECON,ioos:station:SCCF:51:1,2008-06-21T09:00:00Z,26.5545,-82.1715,1.8,30.46,2 
SCCF RECON,ioos:station:SCCF:51:1,2008-06-21T10:00:00Z,26.5545,-82.1715,1.8,30.48,2 
SCCF RECON,ioos:station:SCCF:51:1,2008-06-21T11:00:00Z,26.5545,-82.1715,1.8,30.36,2 
SCCF RECON,ioos:station:SCCF:51:1,2008-06-21T12:00:00Z,26.5545,-82.1715,1.8,30.24,2 
SCCF RECON,ioos:station:SCCF:51:1,2008-06-21T13:00:00Z,26.5545,-82.1715,1.8,30.26,2 
SCCF RECON,ioos:station:SCCF:51:1,2008-06-21T14:00:00Z,26.5545,-82.1715,1.8,30.4,2 
SCCF RECON,ioos:station:SCCF:51:1,2008-06-21T15:00:00Z,26.5545,-82.1715,1.8,30.73,2 
SCCF RECON,ioos:station:SCCF:51:1,2008-06-21T16:00:00Z,26.5545,-82.1715,1.8,30.74,2 
SCCF RECON,ioos:station:SCCF:51:1,2008-06-21T17:00:00Z,26.5545,-82.1715,1.8,30.98,2 
SCCF RECON,ioos:station:SCCF:51:1,2008-06-21T18:00:00Z,26.5545,-82.1715,1.8,31.21,2 
SCCF RECON,ioos:station:SCCF:51:1,2008-06-21T19:00:00Z,26.5545,-82.1715,1.8,31.34,2 
SCCF RECON,ioos:station:SCCF:51:1,2008-06-21T20:00:00Z,26.5545,-82.1715,1.8,31.43,2 
SCCF RECON,ioos:station:SCCF:51:1,2008-06-21T21:00:00Z,26.5545,-82.1715,1.8,31.42,2 
SCCF RECON,ioos:station:SCCF:51:1,2008-06-21T22:00:00Z,26.5545,-82.1715,1.8,31.28,2 
SCCF RECON,ioos:station:SCCF:51:1,2008-06-21T23:00:00Z,26.5545,-82.1715,1.8,31.05,2 
SCCF RECON,ioos:station:SCCF:51:1,2008-06-22T00:00:00Z,26.5545,-82.1715,1.8,30.92,2 
SCCF RECON,ioos:station:SCCF:51:1,2008-06-22T01:00:00Z,26.5545,-82.1715,1.8,30.86,2 
SCCF RECON,ioos:station:SCCF:51:1,2008-06-22T02:00:00Z,26.5545,-82.1715,1.8,30.74,2 
SCCF RECON,ioos:station:SCCF:51:1,2008-06-22T03:00:00Z,26.5545,-82.1715,1.8,30.64,2 
SCCF RECON,ioos:station:SCCF:51:1,2008-06-22T04:00:00Z,26.5545,-82.1715,1.8,30.47,2 
SCCF RECON,ioos:station:SCCF:51:1,2008-06-22T05:00:00Z,26.5545,-82.1715,1.8,30.23,2 
SCCF RECON,ioos:station:SCCF:51:1,2008-06-22T06:00:00Z,26.5545,-82.1715,1.8,30.43,2 
SCCF RECON,ioos:station:SCCF:51:1,2008-06-22T07:00:00Z,26.5545,-82.1715,1.8,30.45,2 
SCCF RECON,ioos:station:SCCF:51:1,2008-06-22T08:00:00Z,26.5545,-82.1715,1.8,29.86,2 
SCCF RECON,ioos:station:SCCF:51:1,2008-06-22T09:00:00Z,26.5545,-82.1715,1.8,30.32,2 
SCCF RECON,ioos:station:SCCF:51:1,2008-06-22T10:00:00Z,26.5545,-82.1715,1.8,30.15,2 
SCCF RECON,ioos:station:SCCF:51:1,2008-06-22T11:00:00Z,26.5545,-82.1715,1.8,30.2,2 
SCCF RECON,ioos:station:SCCF:51:1,2008-06-22T12:00:00Z,26.5545,-82.1715,1.8,30.01,2 
SCCF RECON,ioos:station:SCCF:51:1,2008-06-22T13:00:00Z,26.5545,-82.1715,1.8,29.86,2 
SCCF RECON,ioos:station:SCCF:51:1,2008-06-22T14:00:00Z,26.5545,-82.1715,1.8,29.96,2 
SCCF RECON,ioos:station:SCCF:51:1,2008-06-22T15:00:00Z,26.5545,-82.1715,1.8,30.1,2 
SCCF RECON,ioos:station:SCCF:51:1,2008-06-22T16:00:00Z,26.5545,-82.1715,1.8,30.51,2 
SCCF RECON,ioos:station:SCCF:51:1,2008-06-22T17:00:00Z,26.5545,-82.1715,1.8,30.7,2 
SCCF RECON,ioos:station:SCCF:51:1,2008-06-22T18:00:00Z,26.5545,-82.1715,1.8,31.07,2 
SCCF RECON,ioos:station:SCCF:51:1,2008-06-22T19:00:00Z,26.5545,-82.1715,1.8,31.4,2 
SCCF RECON,ioos:station:SCCF:51:1,2008-06-22T20:00:00Z,26.5545,-82.1715,1.8,31.54,2 
SCCF RECON,ioos:station:SCCF:51:1,2008-06-22T21:00:00Z,26.5545,-82.1715,1.8,31.39,2 
SCCF RECON,ioos:station:SCCF:51:1,2008-06-22T22:00:00Z,26.5545,-82.1715,1.8,31.29,2 
SCCF RECON,ioos:station:SCCF:51:1,2008-06-22T23:00:00Z,26.5545,-82.1715,1.8,31.09,2 
SCCF RECON,ioos:station:SCCF:51:1,2008-06-23T00:00:00Z,26.5545,-82.1715,1.8,30.94,2 
SCCF RECON,ioos:station:SCCF:51:1,2008-06-23T01:00:00Z,26.5545,-82.1715,1.8,30.66,2 
SCCF RECON,ioos:station:SCCF:51:1,2008-06-23T02:00:00Z,26.5545,-82.1715,1.8,30.66,2 
SCCF RECON,ioos:station:SCCF:51:1,2008-06-23T03:00:00Z,26.5545,-82.1715,1.8,30.61,2 
SCCF RECON,ioos:station:SCCF:51:1,2008-06-23T04:00:00Z,26.5545,-82.1715,1.8,30.49,2 
SCCF RECON,ioos:station:SCCF:51:1,2008-06-23T05:00:00Z,26.5545,-82.1715,1.8,30.36,2 
SCCF RECON,ioos:station:SCCF:51:1,2008-06-23T06:00:00Z,26.5545,-82.1715,1.8,30.25,2 
SCCF RECON,ioos:station:SCCF:51:1,2008-06-23T07:00:00Z,26.5545,-82.1715,1.8,30.63,2 
SCCF RECON,ioos:station:SCCF:51:1,2008-06-23T08:00:00Z,26.5545,-82.1715,1.8,30.18,2 
SCCF RECON,ioos:station:SCCF:51:1,2008-06-23T09:00:00Z,26.5545,-82.1715,1.8,30.34,2 
SCCF RECON,ioos:station:SCCF:51:1,2008-06-23T10:00:00Z,26.5545,-82.1715,1.8,30.28,2 
SCCF RECON,ioos:station:SCCF:51:1,2008-06-23T11:00:00Z,26.5545,-82.1715,1.8,30.14,2 
SCCF RECON,ioos:station:SCCF:51:1,2008-06-23T12:00:00Z,26.5545,-82.1715,1.8,29.86,2 
SCCF RECON,ioos:station:SCCF:51:1,2008-06-23T13:00:00Z,26.5545,-82.1715,1.8,29.87,2 
SCCF RECON,ioos:station:SCCF:51:1,2008-06-23T14:00:00Z,26.5545,-82.1715,1.8,29.88,2 